Location: Home
(40.5300°N, 105.0300°W)
Time: 19:06:55
(UTC-06:00)

STARLINK-2732 - Visible Passes

Search period start: 23 October 2021 00:00
Search period end: 02 November 2021 00:00
Orbit: 546 x 548 km, 53.1° (Epoch: 23 October)

Date Brightness Start Highest point End Pass type
(mag) Time Alt. Az. Time Alt. Az. Time Alt. Az.
25 Oct 4.1 06:49:42 10° SW 06:53:46 66° SE 06:57:52 10° NE visible
26 Oct 6.5 05:06:58 10° SSE 05:08:30 12° SE 05:10:03 10° ESE visible
26 Oct 3.6 06:43:19 10° SW 06:47:26 88° SSE 06:51:35 10° NE visible
27 Oct 6.1 05:00:30 14° SSE 05:02:02 16° SE 05:04:39 10° E visible
27 Oct 3.6 06:37:01 10° WSW 06:41:07 70° NW 06:45:14 10° NE visible
28 Oct 5.7 04:55:26 22° SE 04:55:34 22° SE 04:58:47 10° ENE visible
28 Oct 3.8 06:31:05 12° WSW 06:34:49 54° NW 06:38:52 10° NE visible
29 Oct 5.6 04:50:08 26° ESE 04:50:08 26° ESE 04:52:43 10° ENE visible
29 Oct 4.1 06:25:46 18° W 06:28:31 42° NNW 06:32:27 10° NE visible
30 Oct 5.8 04:44:38 24° E 04:44:38 24° E 04:46:33 10° ENE visible
30 Oct 4.4 06:20:16 22° WNW 06:22:14 34° NNW 06:26:01 10° NE visible
31 Oct 6.2 04:38:59 19° ENE 04:38:59 19° ENE 04:40:17 10° ENE visible
31 Oct 4.7 06:14:36 23° WNW 06:15:58 28° NNW 06:19:34 10° NE visible
01 Nov 6.5 04:33:13 15° NE 04:33:13 15° NE 04:33:57 10° NE visible
01 Nov 4.9 06:08:50 22° NW 06:09:42 24° NNW 06:13:07 10° NNE visible
